START_TIME,STEP,MOV.,H8,t_acc.,H43,t_acc.,M25,t_acc.,H9,t_acc.
1979-07-07 15:00:30.110 ,1,0,1.,12.0,0.,12.0,0.,12.0,0.,12.0
1979-07-07 15:00:42.110 ,1,0,0.,12.0,0.,12.0,0.,12.0,0.,12.0
1979-07-07 15:00:54.110 ,2,0,0.,12.0,1.,12.0,0.,12.0,0.,12.0
1979-07-07 15:01:06.110 ,2,0,0.,12.0,0.,12.0,0.,12.0,0.,12.0
1979-07-07 15:01:18.110 ,2,0,0.,12.0,0.,12.0,0.,12.0,0.,12.0
1979-07-07 15:01:30.110 ,2,0,0.,12.0,0.,12.0,0.,12.0,0.,12.0
1979-07-07 15:01:42.110 ,3,0,0.,12.0,0.,12.0,0.,12.0,0.,12.0
1979-07-07 15:01:54.110 ,3,0,0.,12.0,0.,12.0,0.,12.0,0.,12.0
1979-07-07 15:02:06.110 ,3,0,0.,12.0,0.,12.0,0.,12.0,0.,12.0
1979-07-07 15:02:18.110 ,3,0,0.,12.0,0.,12.0,0.,12.0,0.,12.0
1979-07-07 15:02:30.100 ,4,0,0.,12.0,0.,12.0,0.,12.0,0.,12.0
1979-07-07 15:02:42.110 ,4,0,1.,12.0,0.,12.0,0.,12.0,0.,12.0
1979-07-07 15:02:54.100 ,4,0,0.,12.0,0.,12.0,0.,12.0,0.,12.0
1979-07-07 15:03:06.110 ,4,0,0.,12.0,0.,12.0,0.,12.0,0.,12.0
1979-07-07 15:03:18.100 ,5,0,1.,12.0,0.,12.0,0.,12.0,0.,12.0
1979-07-07 15:03:30.110 ,5,0,1.,12.0,0.,12.0,0.,12.0,0.,12.0
1979-07-07 15:03:42.100 ,5,0,1.,12.0,0.,12.0,0.,12.0,0.,12.0
1979-07-07 15:03:54.110 ,5,0,0.,12.0,0.,12.0,0.,12.0,0.,12.0
1979-07-07 15:04:06.100 ,6,0,0.,12.0,0.,12.0,0.,12.0,0.,12.0
1979-07-07 15:04:18.110 ,6,0,1.,12.0,0.,12.0,0.,12.0,0.,12.0
1979-07-07 15:04:30.110 ,6,0,0.,12.0,0.,12.0,0.,12.0,0.,12.0
1979-07-07 15:04:42.110 ,6,0,0.,12.0,0.,12.0,0.,12.0,0.,12.0
1979-07-07 15:04:54.110 ,7,0,0.,12.0,0.,12.0,0.,12.0,0.,12.0
1979-07-07 15:05:06.110 ,7,0,0.,12.0,0.,12.0,0.,12.0,0.,12.0
1979-07-07 15:05:18.110 ,7,0,0.,12.0,0.,12.0,0.,12.0,0.,12.0
1979-07-07 15:05:30.110 ,7,0,0.,12.0,0.,12.0,0.,12.0,0.,12.0
1979-07-07 15:05:42.110 ,7,0,0.,12.0,0.,12.0,0.,12.0,0.,12.0
1979-07-07 15:05:54.110 ,7,0,0.,12.0,0.,12.0,0.,12.0,0.,12.0
1979-07-07 15:06:06.110 ,7,0,0.,12.0,0.,12.0,0.,12.0,0.,12.0
1979-07-07 15:06:18.110 ,7,0,0.,12.0,0.,12.0,0.,12.0,0.,12.0
1979-07-07 15:06:30.110 ,6,0,0.,12.0,0.,12.0,0.,12.0,0.,12.0
1979-07-07 15:06:42.110 ,6,0,0.,12.0,0.,12.0,0.,12.0,0.,12.0
1979-07-07 15:06:54.110 ,6,0,0.,12.0,0.,12.0,0.,12.0,0.,12.0
1979-07-07 15:07:06.110 ,6,0,0.,12.0,0.,12.0,0.,12.0,0.,12.0
1979-07-07 15:07:18.110 ,5,0,1.,12.0,0.,12.0,0.,12.0,0.,12.0
1979-07-07 15:07:30.110 ,5,0,0.,12.0,0.,12.0,0.,12.0,0.,12.0
1979-07-07 15:07:42.110 ,5,0,0.,12.0,0.,12.0,0.,12.0,0.,12.0
1979-07-07 15:07:54.110 ,5,0,0.,12.0,0.,12.0,0.,12.0,0.,12.0
1979-07-07 15:08:06.110 ,4,0,1.,12.0,0.,12.0,0.,12.0,0.,12.0
1979-07-07 15:08:18.110 ,4,0,0.,12.0,0.,12.0,0.,12.0,0.,12.0
1979-07-07 15:08:30.110 ,4,0,0.,12.0,0.,12.0,0.,12.0,0.,12.0
1979-07-07 15:08:42.110 ,4,0,0.,12.0,0.,12.0,0.,12.0,0.,12.0
1979-07-07 15:08:54.100 ,3,0,1.,12.0,0.,12.0,0.,12.0,0.,12.0
1979-07-07 15:09:06.100 ,3,0,0.,12.0,0.,12.0,0.,12.0,0.,12.0
1979-07-07 15:09:18.100 ,3,0,1.,12.0,0.,12.0,0.,12.0,0.,12.0
1979-07-07 15:09:30.100 ,3,0,0.,12.0,0.,12.0,0.,12.0,0.,12.0
1979-07-07 15:09:42.100 ,2,0,0.,12.0,0.,12.0,0.,12.0,0.,12.0
1979-07-07 15:09:54.100 ,2,0,1.,12.0,0.,12.0,0.,12.0,0.,12.0
1979-07-07 15:10:06.100 ,2,0,0.,12.0,0.,12.0,0.,12.0,0.,12.0
1979-07-07 15:10:18.100 ,2,0,0.,12.0,0.,12.0,0.,12.0,0.,12.0
1979-07-07 15:10:30.100 ,1,0,0.,12.0,0.,12.0,0.,12.0,0.,12.0
1979-07-07 15:10:42.100 ,1,0,0.,12.0,1.,12.0,0.,12.0,0.,12.0
1979-07-07 15:10:54.100 ,1,0,0.,12.0,0.,12.0,0.,12.0,0.,12.0
1979-07-07 15:11:06.100 ,1,0,0.,12.0,0.,12.0,0.,12.0,0.,12.0
1979-07-07 15:11:18.100 ,0,0,0.,12.0,0.,12.0,0.,12.0,0.,12.0
1979-07-07 15:11:30.100 ,0,0,0.,12.0,0.,12.0,0.,12.0,0.,12.0
1979-07-07 15:11:42.100 ,0,0,0.,12.0,0.,12.0,0.,12.0,0.,12.0
1979-07-07 15:11:54.100 ,0,0,0.,12.0,0.,12.0,0.,12.0,0.,12.0
1979-07-07 15:12:06.100 ,0,0,0.,12.0,0.,12.0,0.,12.0,0.,12.0
1979-07-07 15:12:18.100 ,0,0,2.,12.0,0.,12.0,0.,12.0,0.,12.0
1979-07-07 15:12:30.100 ,0,0,0.,12.0,0.,12.0,0.,12.0,0.,12.0
1979-07-07 15:12:42.100 ,0,0,0.,12.0,0.,12.0,0.,12.0,0.,12.0
1979-07-07 15:12:54.100 ,1,0,0.,12.0,0.,12.0,0.,12.0,0.,12.0
1979-07-07 15:13:06.100 ,1,0,0.,12.0,0.,12.0,0.,12.0,0.,12.0
1979-07-07 15:13:18.100 ,1,0,0.,12.0,0.,12.0,0.,12.0,0.,12.0
1979-07-07 15:13:30.100 ,1,0,0.,12.0,0.,12.0,0.,12.0,0.,12.0
1979-07-07 15:14:30.100 ,0,0,0.,12.0,1.,12.0,0.,12.0,0.,12.0
1979-07-07 15:14:42.100 ,0,0,0.,12.0,0.,12.0,0.,12.0,0.,12.0
1979-07-07 15:14:54.100 ,0,0,0.,12.0,0.,12.0,0.,12.0,0.,12.0
1979-07-07 15:15:06.100 ,0,0,1.,12.0,0.,12.0,0.,12.0,0.,12.0
1979-07-07 15:14:54.100 ,0,0,0.,12.0,0.,12.0,0.,12.0,0.,12.0
1979-07-07 15:15:06.100 ,0,0,1.,12.0,0.,12.0,0.,12.0,0.,12.0
1979-07-07 15:15:18.100 ,4,0,1.,12.0,0.,12.0,0.,12.0,0.,12.0
1979-07-07 15:15:30.100 ,4,0,0.,12.0,0.,12.0,0.,12.0,0.,12.0
1979-07-07 15:15:42.100 ,4,0,0.,12.0,0.,12.0,0.,12.0,0.,12.0
1979-07-07 15:15:54.100 ,4,0,1.,12.0,0.,12.0,0.,12.0,0.,12.0
1979-07-07 15:16:06.100 ,5,0,0.,12.0,0.,12.0,0.,12.0,0.,12.0
1979-07-07 15:16:18.100 ,5,0,0.,12.0,0.,12.0,0.,12.0,0.,12.0
1979-07-07 15:16:30.100 ,5,0,1.,12.0,0.,12.0,0.,12.0,0.,12.0
1979-07-07 15:16:42.100 ,5,0,0.,12.0,0.,12.0,0.,12.0,0.,12.0
1979-07-07 15:16:54.100 ,6,0,0.,12.0,0.,12.0,0.,12.0,0.,12.0
1979-07-07 15:17:06.100 ,6,0,0.,12.0,0.,12.0,0.,12.0,0.,12.0
1979-07-07 15:17:18.100 ,6,0,0.,12.0,0.,12.0,0.,12.0,0.,12.0
1979-07-07 15:17:30.100 ,6,0,0.,12.0,0.,12.0,0.,12.0,0.,12.0
1979-07-07 15:17:42.100 ,7,0,0.,12.0,0.,12.0,0.,12.0,0.,12.0
1979-07-07 15:17:54.100 ,7,0,0.,12.0,0.,12.0,0.,12.0,0.,12.0
1979-07-07 15:18:06.100 ,7,0,0.,12.0,0.,12.0,0.,12.0,0.,12.0
1979-07-07 15:18:18.100 ,7,0,0.,12.0,0.,12.0,0.,12.0,0.,12.0
1979-07-07 15:18:30.100 ,7,0,0.,12.0,0.,12.0,0.,12.0,0.,12.0
1979-07-07 15:18:42.100 ,7,0,0.,12.0,0.,12.0,0.,12.0,0.,12.0
1979-07-07 15:18:54.100 ,7,0,0.,12.0,0.,12.0,0.,12.0,0.,12.0
1979-07-07 15:19:06.100 ,7,0,0.,12.0,0.,12.0,0.,12.0,0.,12.0
1979-07-07 15:19:18.100 ,6,0,0.,12.0,0.,12.0,0.,12.0,0.,12.0
1979-07-07 15:19:30.100 ,6,0,0.,12.0,0.,12.0,0.,12.0,0.,12.0
1979-07-07 15:19:42.100 ,6,0,1.,12.0,0.,12.0,0.,12.0,0.,12.0
1979-07-07 15:19:54.100 ,6,0,2.,12.0,0.,12.0,0.,12.0,0.,12.0
1979-07-07 15:20:06.100 ,5,0,0.,12.0,0.,12.0,0.,12.0,0.,12.0
1979-07-07 15:20:18.100 ,5,0,0.,12.0,0.,12.0,0.,12.0,0.,12.0
1979-07-07 15:20:30.100 ,5,0,1.,12.0,0.,12.0,0.,12.0,0.,12.0
1979-07-07 15:20:42.100 ,5,0,0.,12.0,0.,12.0,0.,12.0,0.,12.0
1979-07-07 15:20:54.100 ,4,0,0.,12.0,0.,12.0,0.,12.0,0.,12.0
1979-07-07 15:21:06.100 ,4,0,0.,12.0,0.,12.0,0.,12.0,0.,12.0
1979-07-07 15:21:18.100 ,4,0,2.,12.0,0.,12.0,0.,12.0,0.,12.0
1979-07-07 15:21:30.100 ,4,0,0.,12.0,0.,12.0,0.,12.0,0.,12.0
1979-07-07 15:21:42.100 ,3,0,0.,12.0,0.,12.0,0.,12.0,0.,12.0
1979-07-07 15:21:54.100 ,3,0,1.,12.0,0.,12.0,0.,12.0,0.,12.0
1979-07-07 15:22:06.100 ,3,0,0.,12.0,0.,12.0,0.,12.0,0.,12.0
1979-07-07 15:22:18.100 ,3,0,0.,12.0,0.,12.0,0.,12.0,0.,12.0
1979-07-07 15:22:30.100 ,2,0,0.,12.0,0.,12.0,0.,12.0,0.,12.0
1979-07-07 15:22:42.100 ,2,0,1.,12.0,0.,12.0,0.,12.0,0.,12.0
1979-07-07 15:22:54.100 ,2,0,0.,12.0,0.,12.0,0.,12.0,0.,12.0
1979-07-07 15:23:06.100 ,2,0,0.,12.0,0.,12.0,0.,12.0,0.,12.0
1979-07-07 15:23:18.100 ,1,0,0.,12.0,0.,12.0,0.,12.0,0.,12.0
1979-07-07 15:23:30.100 ,1,0,0.,12.0,0.,12.0,0.,12.0,0.,12.0
1979-07-07 15:23:42.100 ,1,0,0.,12.0,0.,12.0,0.,12.0,0.,12.0
1979-07-07 15:23:54.100 ,1,0,0.,12.0,0.,12.0,0.,12.0,0.,12.0
1979-07-07 15:24:06.100 ,0,0,0.,12.0,0.,12.0,0.,12.0,0.,12.0
1979-07-07 15:24:18.100 ,0,0,0.,12.0,0.,12.0,0.,12.0,0.,12.0
1979-07-07 15:24:30.100 ,0,0,0.,12.0,0.,12.0,0.,12.0,0.,12.0
1979-07-07 15:24:42.100 ,0,0,0.,12.0,0.,12.0,0.,12.0,0.,12.0
1979-07-07 15:24:54.100 ,0,0,1.,12.0,0.,12.0,0.,12.0,0.,12.0
1979-07-07 15:25:06.100 ,0,0,0.,12.0,0.,12.0,0.,12.0,0.,12.0
1979-07-07 15:25:18.100 ,0,0,0.,12.0,1.,12.0,0.,12.0,0.,12.0
1979-07-07 15:25:30.100 ,0,0,0.,12.0,0.,12.0,0.,12.0,0.,12.0
1979-07-07 15:25:42.100 ,1,0,0.,12.0,0.,12.0,0.,12.0,0.,12.0
1979-07-07 15:25:54.100 ,1,0,0.,12.0,0.,12.0,0.,12.0,0.,12.0
1979-07-07 15:26:06.100 ,1,0,2.,12.0,0.,12.0,0.,12.0,0.,12.0
1979-07-07 15:26:18.100 ,1,0,0.,12.0,0.,12.0,0.,12.0,0.,12.0
1979-07-07 15:26:30.100 ,2,0,1.,12.0,0.,12.0,0.,12.0,0.,12.0
1979-07-07 15:26:42.100 ,2,0,0.,12.0,0.,12.0,0.,12.0,0.,12.0
1979-07-07 15:26:54.100 ,2,0,0.,12.0,0.,12.0,0.,12.0,0.,12.0
1979-07-07 15:27:06.100 ,2,0,0.,12.0,0.,12.0,0.,12.0,0.,12.0
1979-07-07 15:27:18.100 ,3,0,0.,12.0,0.,12.0,0.,12.0,0.,12.0
1979-07-07 15:27:30.100 ,3,0,0.,12.0,0.,12.0,0.,12.0,0.,12.0
1979-07-07 15:27:42.100 ,3,0,0.,12.0,0.,12.0,0.,12.0,0.,12.0
1979-07-07 15:27:54.100 ,3,0,0.,12.0,0.,12.0,0.,12.0,0.,12.0
1979-07-07 15:28:06.100 ,4,0,0.,12.0,0.,12.0,0.,12.0,0.,12.0
1979-07-07 15:28:18.100 ,4,0,1.,12.0,0.,12.0,0.,12.0,0.,12.0
1979-07-07 15:28:30.100 ,4,0,0.,12.0,0.,12.0,0.,12.0,0.,12.0
1979-07-07 15:28:42.100 ,4,0,1.,12.0,0.,12.0,0.,12.0,0.,12.0
1979-07-07 15:28:54.100 ,5,0,0.,12.0,0.,12.0,0.,12.0,0.,12.0
1979-07-07 15:29:06.100 ,5,0,1.,12.0,0.,12.0,0.,12.0,0.,12.0
1979-07-07 15:29:18.100 ,5,0,1.,12.0,0.,12.0,0.,12.0,0.,12.0
1979-07-07 15:29:30.100 ,5,0,2.,12.0,0.,12.0,0.,12.0,0.,12.0
1979-07-07 15:29:42.100 ,6,0,1.,12.0,0.,12.0,0.,12.0,0.,12.0
1979-07-07 15:29:54.100 ,6,0,1.,12.0,0.,12.0,0.,12.0,0.,12.0
1979-07-07 15:30:06.100 ,6,0,0.,12.0,0.,12.0,0.,12.0,0.,12.0
1979-07-07 15:30:18.100 ,6,0,0.,12.0,0.,12.0,0.,12.0,0.,12.0
1979-07-07 15:30:30.100 ,7,0,2.,12.0,0.,12.0,0.,12.0,0.,12.0
1979-07-07 15:30:42.100 ,7,0,0.,12.0,0.,12.0,0.,12.0,0.,12.0
1979-07-07 15:30:54.100 ,7,0,0.,12.0,0.,12.0,0.,12.0,0.,12.0
1979-07-07 15:31:06.100 ,7,0,0.,12.0,1.,12.0,0.,12.0,0.,12.0
1979-07-07 15:31:18.100 ,3,1,0.,12.0,0.,12.0,0.,12.0,0.,12.0
1979-07-07 15:31:30.100 ,3,1,0.,12.0,1.,12.0,0.,12.0,0.,12.0
1979-07-07 15:31:42.100 ,0,1,0.,12.0,0.,12.0,0.,12.0,0.,12.0
1979-07-07 15:31:54.100 ,0,1,0.,12.0,0.,12.0,0.,12.0,0.,12.0
1979-07-07 15:32:06.100 ,4,1,1.,12.0,0.,12.0,0.,12.0,0.,12.0
1979-07-07 15:32:18.100 ,4,1,0.,12.0,0.,12.0,0.,12.0,0.,12.0
1979-07-07 15:32:30.100 ,7,1,0.,12.0,0.,12.0,0.,12.0,0.,12.0
1979-07-07 15:32:42.100 ,7,1,1.,12.0,0.,12.0,0.,12.0,0.,12.0
1979-07-07 15:32:54.100 ,3,1,0.,12.0,0.,12.0,0.,12.0,0.,12.0
1979-07-07 15:33:06.100 ,3,1,0.,12.0,0.,12.0,0.,12.0,0.,12.0
1979-07-07 15:33:18.100 ,0,0,0.,12.0,0.,12.0,0.,12.0,0.,12.0
1979-07-07 15:33:30.100 ,0,0,0.,12.0,0.,12.0,0.,12.0,0.,12.0
1979-07-07 15:33:43.900 ,4,1,0.,12.0,0.,12.0,0.,12.0,0.,12.0
1979-07-07 15:33:55.900 ,4,1,0.,12.0,0.,12.0,0.,12.0,0.,12.0
1979-07-07 15:34:06.100 ,7,1,1.,12.0,0.,12.0,0.,12.0,0.,12.0
1979-07-07 15:34:18.100 ,7,1,0.,12.0,0.,12.0,0.,12.0,0.,12.0
1979-07-07 15:34:30.100 ,3,1,0.,12.0,0.,12.0,0.,12.0,0.,12.0
1979-07-07 15:34:42.100 ,3,1,0.,12.0,0.,12.0,0.,12.0,0.,12.0
1979-07-07 15:34:54.100 ,0,1,0.,12.0,0.,12.0,0.,12.0,0.,12.0
1979-07-07 15:35:06.100 ,0,1,0.,12.0,0.,12.0,0.,12.0,0.,12.0
1979-07-07 15:35:18.100 ,0,0,0.,12.0,0.,12.0,0.,12.0,0.,12.0
1979-07-07 15:35:30.100 ,0,0,0.,12.0,0.,12.0,0.,12.0,0.,12.0
1979-07-07 15:35:42.100 ,7,1,1.,12.0,0.,12.0,0.,12.0,0.,12.0
1979-07-07 15:35:54.100 ,7,1,0.,12.0,0.,12.0,0.,12.0,0.,12.0
1979-07-07 15:36:06.100 ,3,1,0.,12.0,0.,12.0,0.,12.0,0.,12.0
1979-07-07 15:36:18.100 ,3,1,1.,12.0,0.,12.0,0.,12.0,1.,12.0
1979-07-07 15:36:30.100 ,0,1,0.,12.0,0.,12.0,0.,12.0,0.,12.0
1979-07-07 15:36:42.100 ,0,1,0.,12.0,1.,12.0,0.,12.0,0.,12.0
1979-07-07 15:36:54.100 ,4,1,0.,12.0,0.,12.0,0.,12.0,0.,12.0
1979-07-07 15:37:06.100 ,4,1,0.,12.0,0.,12.0,0.,12.0,0.,12.0
1979-07-07 15:37:18.100 ,7,1,2.,12.0,0.,12.0,0.,12.0,0.,12.0
1979-07-07 15:37:30.100 ,7,1,0.,12.0,0.,12.0,0.,12.0,0.,12.0
1979-07-07 15:37:42.100 ,3,1,1.,12.0,0.,12.0,0.,12.0,0.,12.0
1979-07-07 15:37:54.100 ,3,1,1.,12.0,0.,12.0,0.,12.0,0.,12.0
1979-07-07 15:38:06.100 ,0,1,0.,12.0,0.,12.0,0.,12.0,0.,12.0
1979-07-07 15:38:18.100 ,0,1,0.,12.0,0.,12.0,0.,12.0,0.,12.0
1979-07-07 15:38:30.100 ,4,1,0.,12.0,0.,12.0,0.,12.0,0.,12.0
1979-07-07 15:38:42.100 ,4,1,0.,12.0,0.,12.0,0.,12.0,0.,12.0
1979-07-07 15:38:54.100 ,7,1,0.,12.0,0.,12.0,0.,12.0,0.,12.0
1979-07-07 15:39:06.100 ,7,1,0.,12.0,0.,12.0,0.,12.0,0.,12.0
1979-07-07 15:39:18.100 ,5,1,0.,12.0,0.,12.0,0.,12.0,0.,12.0
1979-07-07 15:39:30.100 ,5,1,,0,,0,,0,,0
1979-07-07 15:39:42.100 ,0,1,0.,12.0,0.,12.0,0.,12.0,0.,12.0
1979-07-07 15:39:54.100 ,0,1,0.,12.0,0.,12.0,0.,12.0,0.,12.0
1979-07-07 15:40:06.100 ,4,1,0.,12.0,0.,12.0,0.,12.0,0.,12.0
1979-07-07 15:40:18.100 ,4,1,0.,12.0,0.,12.0,0.,12.0,0.,12.0
1979-07-07 15:40:30.100 ,7,1,2.,12.0,0.,12.0,0.,12.0,0.,12.0
1979-07-07 15:40:42.100 ,7,1,0.,12.0,0.,12.0,0.,12.0,0.,12.0
1979-07-07 15:40:54.100 ,3,1,1.,12.0,0.,12.0,0.,12.0,0.,12.0
1979-07-07 15:41:06.100 ,3,1,1.,12.0,0.,12.0,0.,12.0,0.,12.0
1979-07-07 15:41:18.100 ,0,1,1.,12.0,0.,12.0,0.,12.0,0.,12.0
1979-07-07 15:41:30.100 ,0,1,0.,12.0,0.,12.0,0.,12.0,0.,12.0
1979-07-07 15:41:42.100 ,0,0,0.,12.0,0.,12.0,0.,12.0,0.,12.0
1979-07-07 15:41:54.100 ,0,0,0.,12.0,0.,12.0,0.,12.0,0.,12.0
1979-07-07 15:42:06.100 ,0,0,0.,12.0,0.,12.0,0.,12.0,0.,12.0
1979-07-07 15:42:18.100 ,0,0,0.,12.0,0.,12.0,0.,12.0,0.,12.0
1979-07-07 15:42:30.100 ,5,0,0.,12.0,0.,12.0,0.,12.0,0.,12.0
1979-07-07 15:42:42.100 ,5,0,1.,12.0,0.,12.0,0.,12.0,0.,12.0
1979-07-07 15:42:54.100 ,5,0,0.,12.0,0.,12.0,0.,12.0,0.,12.0
1979-07-07 15:43:06.100 ,5,0,0.,12.0,0.,12.0,0.,12.0,0.,12.0
1979-07-07 15:43:18.100 ,4,0,0.,12.0,0.,12.0,0.,12.0,0.,12.0
1979-07-07 15:43:30.100 ,4,0,2.,12.0,0.,12.0,0.,12.0,0.,12.0
1979-07-07 15:43:42.100 ,4,0,1.,12.0,0.,12.0,0.,12.0,0.,12.0
1979-07-07 15:43:54.100 ,4,0,0.,12.0,1.,12.0,0.,12.0,0.,12.0
1979-07-07 15:44:06.100 ,3,0,2.,12.0,0.,12.0,0.,12.0,0.,12.0
1979-07-07 15:44:18.100 ,3,0,0.,12.0,0.,12.0,0.,12.0,0.,12.0
1979-07-07 15:44:30.100 ,3,0,0.,12.0,0.,12.0,0.,12.0,0.,12.0
1979-07-07 15:44:42.100 ,3,0,0.,12.0,0.,12.0,0.,12.0,0.,12.0
1979-07-07 15:44:54.100 ,2,0,1.,12.0,0.,12.0,0.,12.0,0.,12.0
1979-07-07 15:45:06.100 ,2,0,1.,12.0,0.,12.0,0.,12.0,0.,12.0
1979-07-07 15:45:18.100 ,2,0,0.,12.0,0.,12.0,0.,12.0,0.,12.0
1979-07-07 15:45:30.100 ,2,0,0.,12.0,0.,12.0,0.,12.0,0.,12.0
1979-07-07 15:45:42.100 ,1,0,0.,12.0,0.,12.0,0.,12.0,0.,12.0
1979-07-07 15:45:54.100 ,1,0,1.,12.0,0.,12.0,0.,12.0,0.,12.0
1979-07-07 15:46:06.100 ,1,0,0.,12.0,0.,12.0,0.,12.0,0.,12.0
1979-07-07 15:46:18.100 ,1,0,0.,12.0,0.,12.0,0.,12.0,0.,12.0
1979-07-07 15:46:30.100 ,0,0,0.,12.0,0.,12.0,0.,12.0,0.,12.0
1979-07-07 15:46:42.100 ,0,0,0.,12.0,0.,12.0,0.,12.0,0.,12.0
1979-07-07 15:46:54.100 ,0,0,0.,12.0,0.,12.0,0.,12.0,0.,12.0
1979-07-07 15:47:06.100 ,0,0,0.,12.0,0.,12.0,0.,12.0,0.,12.0
1979-07-07 15:47:18.100 ,0,0,0.,12.0,0.,12.0,0.,12.0,0.,12.0
1979-07-07 15:47:30.100 ,0,0,0.,12.0,0.,12.0,0.,12.0,0.,12.0
1979-07-07 15:47:42.100 ,0,0,2.,12.0,0.,12.0,0.,12.0,0.,12.0
1979-07-07 15:47:54.100 ,0,0,1.,12.0,0.,12.0,0.,12.0,0.,12.0
1979-07-07 15:48:06.100 ,1,0,0.,12.0,0.,12.0,0.,12.0,0.,12.0
1979-07-07 15:48:18.100 ,1,0,0.,12.0,0.,12.0,0.,12.0,0.,12.0
1979-07-07 15:48:30.100 ,1,0,0.,12.0,0.,12.0,0.,12.0,0.,12.0
1979-07-07 15:48:42.100 ,1,0,1.,12.0,0.,12.0,0.,12.0,0.,12.0
1979-07-07 15:48:54.100 ,2,0,0.,12.0,0.,12.0,0.,12.0,0.,12.0
1979-07-07 15:49:06.100 ,2,0,0.,12.0,0.,12.0,0.,12.0,0.,12.0
1979-07-07 15:49:18.100 ,2,0,0.,12.0,0.,12.0,0.,12.0,0.,12.0
1979-07-07 15:49:30.100 ,2,0,0.,12.0,0.,12.0,0.,12.0,0.,12.0
1979-07-07 15:49:42.100 ,3,0,0.,12.0,0.,12.0,0.,12.0,0.,12.0
1979-07-07 15:49:54.100 ,3,0,0.,12.0,0.,12.0,0.,12.0,0.,12.0
1979-07-07 15:50:06.100 ,3,0,1.,12.0,0.,12.0,0.,12.0,0.,12.0
1979-07-07 15:50:18.100 ,3,0,0.,12.0,0.,12.0,0.,12.0,0.,12.0
1979-07-07 15:50:30.100 ,4,0,0.,12.0,0.,12.0,0.,12.0,0.,12.0
1979-07-07 15:50:42.100 ,4,0,0.,12.0,0.,12.0,0.,12.0,0.,12.0
1979-07-07 15:50:54.100 ,4,0,1.,12.0,0.,12.0,0.,12.0,0.,12.0
1979-07-07 15:51:06.100 ,4,0,1.,12.0,0.,12.0,0.,12.0,0.,12.0
1979-07-07 15:51:18.100 ,5,0,0.,12.0,0.,12.0,0.,12.0,0.,12.0
1979-07-07 15:51:30.100 ,5,0,1.,12.0,0.,12.0,0.,12.0,0.,12.0
1979-07-07 15:51:42.100 ,5,0,2.,12.0,0.,12.0,0.,12.0,0.,12.0
1979-07-07 15:51:54.100 ,5,0,2.,12.0,0.,12.0,0.,12.0,0.,12.0
1979-07-07 15:52:06.100 ,6,0,0.,12.0,0.,12.0,0.,12.0,0.,12.0
1979-07-07 15:52:18.100 ,6,0,1.,12.0,0.,12.0,0.,12.0,0.,12.0
1979-07-07 15:52:30.100 ,6,0,0.,12.0,0.,12.0,0.,12.0,0.,12.0
1979-07-07 15:52:42.100 ,6,0,1.,12.0,0.,12.0,0.,12.0,0.,12.0
1979-07-07 15:52:54.100 ,7,0,0.,12.0,0.,12.0,0.,12.0,0.,12.0
1979-07-07 15:53:06.100 ,7,0,0.,12.0,0.,12.0,0.,12.0,0.,12.0
1979-07-07 15:53:18.100 ,7,0,0.,12.0,0.,12.0,0.,12.0,0.,12.0
1979-07-07 15:53:30.100 ,7,0,0.,12.0,0.,12.0,0.,12.0,0.,12.0
1979-07-07 15:53:42.100 ,7,0,0.,12.0,0.,12.0,0.,12.0,0.,12.0
1979-07-07 15:53:54.100 ,7,0,0.,12.0,0.,12.0,0.,12.0,0.,12.0
1979-07-07 15:54:06.100 ,7,0,0.,12.0,0.,12.0,0.,12.0,0.,12.0
1979-07-07 15:54:18.100 ,7,0,0.,12.0,0.,12.0,0.,12.0,0.,12.0
1979-07-07 15:54:30.100 ,6,0,0.,12.0,0.,12.0,0.,12.0,0.,12.0
1979-07-07 15:54:42.100 ,6,0,0.,12.0,0.,12.0,0.,12.0,0.,12.0
1979-07-07 15:54:54.100 ,6,0,0.,12.0,0.,12.0,0.,12.0,0.,12.0
1979-07-07 15:55:06.100 ,6,0,1.,12.0,0.,12.0,0.,12.0,0.,12.0
1979-07-07 15:55:18.100 ,5,0,0.,12.0,0.,12.0,0.,12.0,0.,12.0
1979-07-07 15:55:30.100 ,5,0,1.,12.0,0.,12.0,0.,12.0,0.,12.0
1979-07-07 15:55:42.100 ,5,0,1.,12.0,0.,12.0,0.,12.0,0.,12.0
1979-07-07 15:55:54.100 ,5,0,1.,12.0,0.,12.0,0.,12.0,0.,12.0
1979-07-07 15:56:06.100 ,4,0,3.,12.0,0.,12.0,0.,12.0,0.,12.0
1979-07-07 15:56:18.100 ,4,0,0.,12.0,0.,12.0,0.,12.0,0.,12.0
1979-07-07 15:56:30.100 ,4,0,2.,12.0,0.,12.0,0.,12.0,0.,12.0
1979-07-07 15:56:42.100 ,4,0,3.,12.0,0.,12.0,0.,12.0,0.,12.0
1979-07-07 15:56:54.100 ,3,0,1.,12.0,0.,12.0,0.,12.0,0.,12.0
1979-07-07 15:57:06.100 ,3,0,0.,12.0,0.,12.0,0.,12.0,0.,12.0
1979-07-07 15:57:18.100 ,3,0,1.,12.0,0.,12.0,0.,12.0,0.,12.0
1979-07-07 15:57:30.100 ,3,0,0.,12.0,0.,12.0,0.,12.0,0.,12.0
1979-07-07 15:57:42.100 ,2,0,1.,12.0,0.,12.0,0.,12.0,0.,12.0
1979-07-07 15:57:54.100 ,2,0,1.,12.0,0.,12.0,0.,12.0,0.,12.0
1979-07-07 15:58:06.100 ,2,0,1.,12.0,0.,12.0,0.,12.0,0.,12.0
1979-07-07 15:58:18.100 ,2,0,0.,12.0,0.,12.0,0.,12.0,0.,12.0
1979-07-07 15:58:30.100 ,1,0,0.,12.0,0.,12.0,0.,12.0,0.,12.0
1979-07-07 15:58:42.100 ,1,0,0.,12.0,0.,12.0,0.,12.0,0.,12.0
1979-07-07 15:58:54.100 ,1,0,0.,12.0,0.,12.0,0.,12.0,0.,12.0
1979-07-07 15:59:06.100 ,1,0,1.,12.0,0.,12.0,0.,12.0,0.,12.0
1979-07-07 15:59:18.100 ,0,0,0.,12.0,0.,12.0,0.,12.0,0.,12.0
1979-07-07 15:59:30.100 ,0,0,0.,12.0,0.,12.0,0.,12.0,0.,12.0
1979-07-07 15:59:42.100 ,0,0,0.,12.0,0.,12.0,0.,12.0,0.,12.0
1979-07-07 15:59:54.100 ,0,0,1.,12.0,0.,12.0,0.,12.0,0.,12.0
1979-07-07 16:00:06.100 ,0,0,1.,12.0,0.,12.0,0.,12.0,0.,12.0
1979-07-07 16:00:18.100 ,0,0,0.,12.0,0.,12.0,0.,12.0,0.,12.0
1979-07-07 16:00:30.100 ,0,0,3.,12.0,0.,12.0,0.,12.0,0.,12.0
1979-07-07 16:00:42.100 ,0,0,0.,12.0,0.,12.0,0.,12.0,0.,12.0
1979-07-07 16:00:54.100 ,1,0,0.,12.0,0.,12.0,0.,12.0,0.,12.0
1979-07-07 16:01:06.100 ,1,0,0.,12.0,0.,12.0,0.,12.0,0.,12.0
1979-07-07 16:01:18.100 ,1,0,0.,12.0,0.,12.0,0.,12.0,0.,12.0
1979-07-07 16:01:30.100 ,1,0,0.,12.0,0.,12.0,0.,12.0,0.,12.0
1979-07-07 16:01:42.100 ,2,0,0.,12.0,0.,12.0,0.,12.0,0.,12.0
1979-07-07 16:01:54.100 ,2,0,0.,12.0,0.,12.0,0.,12.0,0.,12.0
1979-07-07 16:02:06.100 ,2,0,0.,12.0,0.,12.0,0.,12.0,0.,12.0
1979-07-07 16:02:18.100 ,2,0,1.,12.0,0.,12.0,0.,12.0,0.,12.0
1979-07-07 16:02:30.100 ,3,0,0.,12.0,0.,12.0,0.,12.0,0.,12.0
1979-07-07 16:02:42.100 ,3,0,1.,12.0,0.,12.0,0.,12.0,0.,12.0
1979-07-07 16:02:54.100 ,3,0,1.,12.0,0.,12.0,0.,12.0,0.,12.0
1979-07-07 16:03:06.100 ,3,0,0.,12.0,0.,12.0,0.,12.0,0.,12.0
1979-07-07 16:03:18.100 ,4,0,0.,12.0,0.,12.0,0.,12.0,0.,12.0
1979-07-07 16:03:30.100 ,4,0,0.,12.0,0.,12.0,0.,12.0,0.,12.0
1979-07-07 16:03:42.100 ,4,0,0.,12.0,0.,12.0,0.,12.0,0.,12.0
1979-07-07 16:03:54.100 ,4,0,0.,12.0,0.,12.0,0.,12.0,0.,12.0
1979-07-07 16:04:06.100 ,5,0,2.,12.0,0.,12.0,0.,12.0,0.,12.0
1979-07-07 16:04:18.100 ,5,0,2.,12.0,0.,12.0,0.,12.0,0.,12.0
1979-07-07 16:04:30.100 ,5,0,0.,12.0,0.,12.0,0.,12.0,0.,12.0
1979-07-07 16:04:42.100 ,5,0,0.,12.0,0.,12.0,0.,12.0,0.,12.0
1979-07-07 16:04:54.100 ,6,0,0.,12.0,0.,12.0,0.,12.0,0.,12.0
1979-07-07 16:05:06.100 ,6,0,0.,12.0,0.,12.0,0.,12.0,0.,12.0
1979-07-07 16:05:18.100 ,6,0,1.,12.0,0.,12.0,0.,12.0,0.,12.0
1979-07-07 16:05:30.100 ,6,0,1.,12.0,0.,12.0,0.,12.0,0.,12.0
1979-07-07 16:05:42.100 ,7,0,1.,12.0,0.,12.0,0.,12.0,0.,12.0
1979-07-07 16:05:54.100 ,7,0,0.,12.0,0.,12.0,0.,12.0,0.,12.0
1979-07-07 16:06:06.100 ,7,0,0.,12.0,0.,12.0,0.,12.0,0.,12.0
1979-07-07 16:06:18.100 ,7,0,0.,12.0,0.,12.0,0.,12.0,0.,12.0
1979-07-07 16:06:30.100 ,7,0,0.,12.0,0.,12.0,0.,12.0,0.,12.0
1979-07-07 16:06:42.100 ,7,0,0.,12.0,0.,12.0,0.,12.0,0.,12.0
1979-07-07 16:06:54.100 ,7,0,0.,12.0,0.,12.0,0.,12.0,0.,12.0
1979-07-07 16:07:06.100 ,7,0,0.,12.0,0.,12.0,0.,12.0,0.,12.0
1979-07-07 16:07:18.100 ,6,0,0.,12.0,0.,12.0,0.,12.0,0.,12.0
1979-07-07 16:07:30.100 ,6,0,2.,12.0,0.,12.0,0.,12.0,0.,12.0
1979-07-07 16:07:42.100 ,6,0,1.,12.0,0.,12.0,0.,12.0,0.,12.0
1979-07-07 16:07:54.100 ,6,0,0.,12.0,0.,12.0,0.,12.0,0.,12.0
1979-07-07 16:08:06.100 ,5,0,1.,12.0,0.,12.0,0.,12.0,0.,12.0
1979-07-07 16:08:18.100 ,5,0,1.,12.0,0.,12.0,0.,12.0,0.,12.0
1979-07-07 16:08:30.100 ,5,0,2.,12.0,0.,12.0,0.,12.0,0.,12.0
1979-07-07 16:08:42.100 ,5,0,1.,12.0,0.,12.0,0.,12.0,0.,12.0
1979-07-07 16:08:54.100 ,4,0,2.,12.0,0.,12.0,0.,12.0,0.,12.0
1979-07-07 16:09:06.100 ,4,0,0.,12.0,0.,12.0,0.,12.0,0.,12.0
1979-07-07 16:09:18.100 ,4,0,1.,12.0,0.,12.0,0.,12.0,0.,12.0
1979-07-07 16:09:30.100 ,4,0,1.,12.0,0.,12.0,0.,12.0,0.,12.0
1979-07-07 16:09:42.100 ,3,0,0.,12.0,0.,12.0,0.,12.0,0.,12.0
1979-07-07 16:09:54.100 ,3,0,1.,12.0,0.,12.0,0.,12.0,0.,12.0
1979-07-07 16:10:06.100 ,3,0,0.,12.0,0.,12.0,0.,12.0,0.,12.0
1979-07-07 16:10:18.100 ,3,0,0.,12.0,0.,12.0,0.,12.0,0.,12.0
1979-07-07 16:10:30.100 ,2,0,2.,12.0,0.,12.0,0.,12.0,0.,12.0
1979-07-07 16:10:42.100 ,2,0,0.,12.0,0.,12.0,0.,12.0,0.,12.0
1979-07-07 16:10:54.100 ,2,0,0.,12.0,0.,12.0,0.,12.0,0.,12.0
1979-07-07 16:11:06.100 ,2,0,0.,12.0,0.,12.0,0.,12.0,0.,12.0
1979-07-07 16:11:18.100 ,1,0,0.,12.0,0.,12.0,0.,12.0,0.,12.0
1979-07-07 16:11:30.100 ,1,0,1.,12.0,0.,12.0,0.,12.0,0.,12.0
1979-07-07 16:11:42.100 ,1,0,0.,12.0,0.,12.0,0.,12.0,0.,12.0
1979-07-07 16:11:54.100 ,1,0,1.,12.0,0.,12.0,0.,12.0,0.,12.0
1979-07-07 16:12:06.100 ,0,0,0.,12.0,0.,12.0,0.,12.0,0.,12.0
1979-07-07 16:12:18.100 ,0,0,0.,12.0,0.,12.0,0.,12.0,0.,12.0
1979-07-07 16:12:30.100 ,0,0,0.,12.0,0.,12.0,0.,12.0,0.,12.0
1979-07-07 16:12:42.100 ,0,0,1.,12.0,0.,12.0,0.,12.0,0.,12.0
1979-07-07 16:12:54.100 ,0,0,0.,12.0,0.,12.0,0.,12.0,0.,12.0
1979-07-07 16:13:06.100 ,0,0,0.,12.0,0.,12.0,0.,12.0,0.,12.0
1979-07-07 16:13:18.100 ,0,0,0.,12.0,0.,12.0,0.,12.0,0.,12.0
1979-07-07 16:13:30.100 ,0,0,0.,12.0,0.,12.0,0.,12.0,0.,12.0
1979-07-07 16:13:42.100 ,1,0,,0,,0,,0,,0
1979-07-07 16:13:54.100 ,1,0,0.,12.0,0.,12.0,0.,12.0,0.,12.0
1979-07-07 16:14:06.100 ,1,0,0.,12.0,0.,12.0,0.,12.0,0.,12.0
1979-07-07 16:14:18.100 ,1,0,1.,12.0,0.,12.0,0.,12.0,0.,12.0
1979-07-07 16:14:30.100 ,2,0,1.,12.0,0.,12.0,0.,12.0,0.,12.0
1979-07-07 16:14:42.100 ,2,0,0.,12.0,0.,12.0,0.,12.0,0.,12.0
1979-07-07 16:14:54.100 ,2,0,0.,12.0,0.,12.0,0.,12.0,0.,12.0
1979-07-07 16:15:06.100 ,2,0,0.,12.0,0.,12.0,0.,12.0,0.,12.0
1979-07-07 16:15:18.100 ,3,0,1.,12.0,0.,12.0,0.,12.0,0.,12.0
1979-07-07 16:15:30.100 ,3,0,2.,12.0,0.,12.0,0.,12.0,0.,12.0
1979-07-07 16:15:42.100 ,3,0,0.,12.0,0.,12.0,0.,12.0,0.,12.0
1979-07-07 16:15:54.100 ,3,0,2.,12.0,0.,12.0,0.,12.0,0.,12.0
1979-07-07 16:16:06.100 ,4,1,1.,12.0,0.,12.0,0.,12.0,0.,12.0
1979-07-07 16:16:18.100 ,4,1,,0,,0,,0,,0
1979-07-07 16:16:30.100 ,4,0,1.,12.0,0.,12.0,0.,12.0,0.,12.0
1979-07-07 16:16:42.100 ,4,0,0.,12.0,0.,12.0,0.,12.0,0.,12.0
1979-07-07 16:16:54.100 ,5,0,0.,12.0,0.,12.0,0.,12.0,0.,12.0
1979-07-07 16:17:06.100 ,5,0,2.,12.0,0.,12.0,0.,12.0,0.,12.0
1979-07-07 16:17:18.100 ,5,0,0.,12.0,0.,12.0,0.,12.0,0.,12.0
1979-07-07 16:17:30.100 ,5,0,0.,12.0,0.,12.0,0.,12.0,0.,12.0
1979-07-07 16:17:42.100 ,6,0,1.,12.0,0.,12.0,0.,12.0,0.,12.0
1979-07-07 16:17:54.100 ,6,0,1.,12.0,0.,12.0,0.,12.0,0.,12.0
1979-07-07 16:18:06.100 ,6,0,2.,12.0,0.,12.0,0.,12.0,0.,12.0